Regional Weather Roundup
Issued by NWS

Home | Current Version | Previous Version | Text Only | Print | Product List | Glossary On
Versions: 1 2 3 4 5 6 7 8 9 10 11 12 13 14 15 16 17 18 19 20 21 22 23 24 25 26 27
000
ASUS45 KTFX 221610
RWRMT
MONTANA REGIONAL WEATHER ROUNDUP
NATIONAL WEATHER SERVICE GREAT FALLS MT
1000 AM MDT MON MAY 22 2017

NOTE: "FAIR" INDICATES FEW OR NO CLOUDS BELOW 12000 FEET WITH NO
SIGNIFICANT WEATHER AND/OR OBSTRUCTIONS TO VISIBILITY.

MTZ001>007-043-221700-
WEST OF THE DIVIDE

CITY           SKY/WX    TMP DP  RH WIND       PRES   REMARKS
KALISPELL      SUNNY     62  43  49 CALM      30.23S
MISSOULA       SUNNY     57  43  59 VRB3      30.27F
BUTTE          SUNNY     54  34  46 CALM      30.30S
MULLAN PASS    SUNNY     56  36  47 N3        30.32S
ANACONDA         N/A     55  36  47 N7        30.28S
DEER LODGE       N/A     55  37  50 N3        30.31S
EUREKA           N/A     61  41  48 CALM      30.24F
HAMILTON         N/A     61  39  44 E3        30.27S
LIBBY            N/A     59  45  58 CALM      30.22F
RONAN            N/A     64  43  46 CALM      30.26S
$$

MTZ008-052>055-221700-
SOUTHWEST MONTANA

CITY           SKY/WX    TMP DP  RH WIND       PRES   REMARKS
BOZEMAN        SUNNY     58  42  55 CALM      30.26S
DILLON         SUNNY     56  37  49 W3        30.27S
W YELLOWSTONE    N/A     50  32  50 NE3       30.30F
ENNIS          SUNNY     57  36  44 CALM      30.32S
THREE FORKS      N/A     59  42  53 NE2       30.22R
TWIN BRIDGES     N/A     56  35  45 CALM      30.23S
$$

MTZ009-010-012-014-046-048-049-054-221700-
EAST SLOPES AND CENTRAL MONTANA

CITY           SKY/WX    TMP DP  RH WIND       PRES   REMARKS
CUT BANK       MOSUNNY   63  35  35 CALM      30.22S
GREAT FALLS    CLOUDY    59  40  49 CALM      30.24R
HELENA         SUNNY     63  39  41 NW5       30.23F
AUGUSTA          N/A     62  32  31 W7        30.24R
BOWMANS CRNR     N/A     58  42  56 SW6       30.22S
FAIRFIELD        N/A     64  37  36 NE8       30.23R
POWER          PTSUNNY   61  33  34 NE8       30.23R
RAYNESFORD     LGT RAIN  57  38  49 N5        30.26R
ULM              N/A     60  44  55 CALM      30.24R
$$

MTZ011-013-016-021-045-047-050-051-221700-
NORTH CENTRAL MONTANA

CITY           SKY/WX    TMP DP  RH WIND       PRES   REMARKS
HAVRE          SUNNY     63  39  41 E13       30.18R
LEWISTOWN      MOSUNNY   59  38  45 NW13G21   30.20R
N BAR RANCH    CLOUDY    57  37  47 N15G22    30.21R
CHINOOK          N/A     61  43  51 CALM      30.17S
DENTON         PTSUNNY   60  38  45 NW16G29   30.16S
FORT BENTON      N/A    N/A N/A N/A MISG      30.21R
GEYSER         LGT RAIN  53  40  61 NW13G30   30.25R
JUDITH GAP     LGT RAIN  50  40  68 NW31G38   30.22R
STANFORD       LGT RAIN  50  40  68 NW21G29   30.25R
WINIFRED         N/A     61  39  44 NW8       30.17S
$$

MTZ017>020-022>027-061-062-221700-
NORTHEAST MONTANA

CITY           SKY/WX    TMP DP  RH WIND       PRES   REMARKS
GLASGOW        SUNNY     60  39  45 N16       30.12R
JORDAN           N/A     60  42  51 N14       30.13R
SIDNEY         CLOUDY    55  43  63 N12       30.06R
WOLF POINT     SUNNY     63  41  44 N16       30.09R
MALTA          SUNNY     61  41  48 N12G17    30.16R
PLENTYWOOD       N/A     59  43  55 N16       30.05S
POPLAR           N/A     57  43  58 N10       30.08F
SCOBEY           N/A     57  40  53 N18       30.07
$$

MTZ028>42-056>058-221700-
SOUTHCENTRAL AND SOUTHEAST MONTANA

CITY           SKY/WX    TMP DP  RH WIND       PRES   REMARKS
BAKER          CLOUDY    54  45  71 NW10G20   30.05S
BILLINGS       PTSUNNY   59  37  44 N21G33    30.16R
LIVINGSTON     CLOUDY    57  39  51 W7        30.24R
MILES CITY     CLOUDY    56  39  53 NW13      30.10R
EKALAKA          N/A     48  40  74 NW15      30.04
FORSYTH          N/A     48  45  87 W5        30.13F
LAUREL           N/A     59  34  39 W16       30.15
ROUNDUP          N/A     60  38  44 N10       30.07R
$$

REGIONAL REPORTS...DAKOTAS

CITY           SKY/WX    TMP DP  RH WIND       PRES   REMARKS
WILLISTON      SUNNY     62  37  39 N12       30.05R
MINOT          CLOUDY    56  36  47 N15G29    29.98S
DICKINSON      MOSUNNY   55  42  61 N12       29.99S
BEACH          CLOUDY    48  46  93 N15       30.08S
TIOGA            N/A     57  36  44 N14G20    30.04S
WATFORD CITY     N/A     59  37  44 NE12G17   30.03R
BISMARCK       SUNNY     59  37  44 N10       29.96F
GRAND FORKS    CLOUDY    53  43  68 NW16G23   29.84S
FARGO          CLOUDY    58  45  62 NW18      29.84F
BUFFALO SD       N/A     55  43  63 NW23      29.96R
RAPID CITY     MOSUNNY   60  40  47 N24G33    30.01S
$$

REGIONAL REPORTS...WYOMING/IDAHO/WASHINGTON

CITY           SKY/WX    TMP DP  RH WIND       PRES   REMARKS
GILLETTE       CLOUDY    46  38  73 N31G40    30.11R
SHERIDAN       RAIN      49  42  77 NW13G29   30.14R
BUFFALO WY     CLOUDY    49  40  71 NW14      30.14F
CODY           CLOUDY    49  39  68 N13       30.23S
YELLOWSTONE LA   N/A     39  32  76 VRB5      30.33F
IDAHO FALLS    MOSUNNY   58  43  57 SW6       30.28F
SALMON         SUNNY     55  39  54 CALM      30.28F
BOISE          SUNNY     66  46  48 CALM      30.21S
SPOKANE        MOSUNNY   65  47  52 E5        30.21S
$$

REGIONAL REPORTS...ALBERTA

CITY           SKY/WX    TMP DP  RH WIND       PRES   REMARKS
EDMONTON       SUNNY     64  43  45 SW7       30.16R
CALGARY        PTSUNNY   66  34  30 NE3       30.21S
LETHBRIDGE     PTSUNNY   61  43  51 W5        30.20S
MEDICINE HAT   PTSUNNY   63  41  45 E10       30.18S
WATERTON GATE    N/A     64  32  29 NE12        N/A
CARDSTON         N/A     63  36  36 N10         N/A
MILK RIVER       N/A     63  41  45 W3          N/A
ONEFOUR          N/A     64  36  34 N10         N/A
$$

REGIONAL REPORTS...SASKATCHEWAN

CITY           SKY/WX    TMP DP  RH WIND       PRES   REMARKS
SWIFT CURRENT  SUNNY     57  39  51 N15       30.16S
REGINA         MOSUNNY   61  36  39 N18G24    30.09R
SASKATOON      SUNNY     61  43  51 N8G17     30.18R
CYPRESS HILLS    N/A     54  36  50 NE7         N/A
VAL MARIE        N/A     59  37  44 N17         N/A
ROCKGLEN         N/A     55  43  62 N16G24      N/A
$$




USA.gov is the U.S. government's official web portal to all federal, state and local government web resources and services.